Weather Service Report


126 
ASUS41 KBOX 270410
RWRBOX

REGIONAL WEATHER ROUNDUP
NATIONAL WEATHER SERVICE TAUNTON MA
1200 AM EDT FRI MAR 27 2015

NOTE:  "FAIR" INDICATES FEW OR NO CLOUDS BELOW 12,000 FEET WITH NO 
SIGNIFICANT WEATHER AND/OR OBSTRUCTIONS TO VISIBILITY.  THE FOLLOWING 
OBSERVATION LOCATIONS DO NOT REPORT PRESENT WEATHER...PROVINCETOWN...
SMITHFIELD...BLOCK ISLAND...KEENE...AND OXFORD.

MAZALL-270500-
EASTERN MASSACHUSETTS
  
CITY           SKY/WX    TMP DP  RH WIND       PRES   REMARKS
BOSTON         LGT RAIN  44  43  96 NW10      29.64F FOG              
BEVERLY        LGT RAIN  42  41  96 N8        29.65F FOG              
LAWRENCE       LGT RAIN  41  40  96 MISG      29.66F FOG              
BEDFORD        CLOUDY    41  41 100 N5        29.63F                  
BLUE HILL        N/A     41  41 100 N15G21    29.62F                  
NORWOOD        CLOUDY    43  42  97 N6        29.64F                  
MARSHFIELD     CLOUDY    46  46 100 N8        29.66R                  
PLYMOUTH       LGT RAIN  45  44  97 N7        29.64R FOG              
TAUNTON        LGT RAIN  46  44  93 N10G16    29.64R                  
NEW BEDFORD    HVY RAIN  49  48  97 N8        29.62R FOG              
$$

MAZALL-270500-
CAPE COD AND THE ISLANDS
  
CITY           SKY/WX    TMP DP  RH WIND       PRES   REMARKS
FALMOUTH       RAIN      52  52 100 W16G25    29.61F FOG              
HYANNIS        HVY RAIN  51  51 100 W14G22    29.61R FOG              
CHATHAM        FOG       48  48 100 SW18G30   29.59F VSB 3/4          
PROVINCETOWN   CLOUDY    45  39  81 N9        29.64R                  
NANTUCKET      TSTM      46  45  96 S20       29.61F VSB 1/2          
MARTHAS VNYRD  FOG       49  46  90 MISG      29.59F VSB 1/2          
$$
 
MAZALL-270500-
CENTRAL AND WESTERN MASSACHUSETTS
  
CITY           SKY/WX    TMP DP  RH WIND       PRES   REMARKS
WORCESTER      LGT RAIN  41  39  93 N10       29.63F                  
FITCHBURG      LGT RAIN  40  38  93 NW3       29.66F VSB 1            
ORANGE         LGT RAIN  38  37  97 N6        29.67F                  
SPRINGFIELD    LGT RAIN  41  39  95 N8        29.65F                  
WESTFIELD      RAIN      41  39  93 N7        29.67F FOG              
NORTH ADAMS    MIX PCPN  36  34  92 W5        29.69S                  
PITTSFIELD     MIX PCPN  36  34  92 NW3       29.66S                  
$$
 
RIZALL-270500-
RHODE ISLAND
  
CITY           SKY/WX    TMP DP  RH WIND       PRES   REMARKS
PROVIDENCE     LGT RAIN  47  44  90 N15       29.64R                  
NEWPORT        RAIN      45  44  97 N12       29.62R FOG              
BLOCK ISLAND   CLOUDY    48  45  87 SW9       29.60F                  
SMITHFIELD     CLOUDY    43  37  81 N10       29.63F                  
WESTERLY       CLOUDY    51  50  96 N17G25    29.62R                  
$$
 
CTZALL-270500-
CONNECTICUT
  
CITY           SKY/WX    TMP DP  RH WIND       PRES   REMARKS
BRADLEY INTL   LGT RAIN  43  40  89 N7        29.66F                  
HARTFORD       LGT RAIN  43  41  93 VRB6      29.67F FOG              
BRIDGEPORT     RAIN      47  43  86 N13       29.65R                  
DANBURY        LGT RAIN  41  37  86 N9        29.66F                  
GROTON         CLOUDY    49  47  93 N15       29.61F                  
NEW HAVEN      LGT RAIN  46  44  93 N9G22     29.64R                  
CHESTER        CLOUDY    43  43 100 N10       29.63F                  
MERIDEN        LGT RAIN  45  42  89 N6        29.66S                  
WILLIMANTIC    CLOUDY    43  41  93 N6        29.64F                  
OXFORD         CLOUDY    43  36  75 N9        29.66R                  
$$

MEZ002-015-021-024-NHZ003-005-008-011-012-014-VTZ005-008-270500-
NORTHERN NEW ENGLAND
  
CITY           SKY/WX    TMP DP  RH WIND       PRES   REMARKS
PORTLAND ME    LGT RAIN  42  39  89 N9        29.69S FOG              
BANGOR ME      LGT RAIN  37  36  96 CALM      29.67F                  
CONCORD NH     RAIN      39  37  92 N3        29.68F FOG              
MANCHESTER NH  RAIN      41  41 100 N7        29.66F FOG              
NASHUA NH      LGT RAIN  41  39  93 N7        29.67F                  
PORTSMOUTH NH  LGT RAIN  41  40  98 N7        29.66S FOG              
JAFFREY NH     LGT RAIN  38  36  92 N5        29.65F                  
KEENE NH       CLOUDY    37  36  93 N6        29.67F                  
BURLINGTON VT  LGT RAIN  34  32  92 E5        29.73F FOG     WCI  30  
MT. WASHINGTON CLOUDY    23  21  93 NW26        N/A  WCI   6          
$$

NYZ052-076-270500-
EASTERN NEW YORK
  
CITY           SKY/WX    TMP DP  RH WIND       PRES   REMARKS
ALBANY         CLOUDY    37  34  89 W6        29.74R                  
NEW YORK CITY  CLOUDY    45  41  86 N9        29.64F                  
$$
 
ANZALL-270500-
MARINE OBSERVATIONS
  
STATION/POSITION TIME  TEMP    WIND        PRES    VSBY  WAVE
                       AIR SEA DIR/SP/G                  HT/PER
                 (UTC) (F)     (DEG/KT/KT) (MB)    (MI)  (FT/S)
BOSTON BUOY      0350   40 37  350/ 10/ 12 1003.9F         1/ 6
BUZZARDS BAY     0300          260/ 18/ 21 1003.5R
NANTUCKET SOUND  0350   46 36  200/ 21/ 25 1001.8F         3/ 4
MASS BAY-STELLWA 0304   39 37  350/  8/ 10   N/A     7/8   2/ 5
ISLE OF SHOALS   0400   42      40/ 12/ 13 1003.9S
S OF BLOCK IS    0308      38                N/A           9/ 9
$$

......................KEY.........................
  SKY/WX - SKY CONDITION/PRESENT WEATHER
  TMP    - TEMPERATURE IN FAHRENHEIT
  DWPT   - DEWPOINT IN FAHRENHEIT
  RH     - RELATIVE HUMIDITY IN PERCENT
  WIND   - DIRECTION AND SPEED IN MPH
  PRES   - MEAN SEA LEVEL PRESSURE IN INCHES OF HG
  WCI    - WIND CHILL INDEX
  VSB    - VISIBILITY IN MILES
  HX     - HEAT INDEX
  TC     - TEMPERATURE IN CELSIUS
  VRB    - VARIABLE WIND DIRECTION
  N/A    - NOT AVAILABLE

Return to Home page


Western Regional Climate Center, wrcc@dri.edu